Change the Weather History Date:

Sunday, November 4, 2012

  Actual Average Record
Temperature  
Mean Temperature 44 °F -  
Max Temperature 47 °F 51 °F 62 °F (2003)
Min Temperature 41 °F 40 °F 33 °F (2013)
Degree Days  
Heating Degree Days 21    
Moisture  
Dew Point 41 °F    
Average Humidity 89    
Maximum Humidity 93    
Minimum Humidity 77    
Precipitation  
Precipitation 0.02 in 0.13 in - ()
Sea Level Pressure  
Sea Level Pressure 29.21 in    
Wind  
Wind Speed 11 mph ()    
Max Wind Speed 15 mph    
Max Gust Speed -    
Visibility 7.0 miles    
Events Rain    
Averages and records for this station are not official NWS values.
T = Trace of Precipitation, MM = Missing Value Source: Averaged Metar Reports

Daily Weather History Graph

Daily Weather History Graph

Search for Another Location

Airport or City:

Trip Planner

Search our weather history database for the weather conditions in past years. The results will help you decide how hot, cold, wet, or windy it might be!

Date:

Astronomy

Nov. 04, 2012 Rise Set
Actual Time 7:38 AM GMT 4:59 PM GMT
Civil Twilight 7:01 AM GMT 5:35 PM GMT
Nautical Twilight 6:21 AM GMT 6:16 PM GMT
Astronomical Twilight 5:41 AM GMT 6:56 PM GMT
Moon 9:15 PM GMT (11/4) 12:24 PM GMT (11/4)
Length of Visible Light 10h 33m
Length of Day
9h 20m
Waning Gibbous, 74% of the Moon is Illuminated
Nov 4
Waning Gibbous
Nov 7
Last Quarter
Nov 13
New
Nov 20
First Quarter
Nov 28
Full

Hourly Weather History & Observations

Time (GMT) Temp. Windchill Dew Point Humidity Pressure Visibility Wind Dir Wind Speed Gust Speed Precip Events Conditions
12:00 AM 44 °F - 39 °F 77% 29.14 in 16 mi SSE 13.4 mph - - Rain Light Rain Showers
12:00 AM 42.8 °F 35.8 °F 39.2 °F 87% 29.12 in 6.2 mi SSE 13.8 mph - N/A Rain Light Rain Showers
12:30 AM 42.8 °F 35.4 °F 39.2 °F 87% 29.12 in 6.2 mi SSE 15.0 mph - N/A   Mostly Cloudy
1:00 AM 42.8 °F 35.8 °F 41.0 °F 93% 29.12 in 6.2 mi South 13.8 mph - N/A Rain Light Rain Showers
1:30 AM 42.8 °F 35.4 °F 41.0 °F 93% 29.09 in 6.2 mi South 15.0 mph - N/A Rain Light Rain Showers
2:00 AM 42.8 °F 35.4 °F 39.2 °F 87% 29.09 in 6.2 mi South 15.0 mph - N/A   Mostly Cloudy
2:30 AM 41.0 °F 33.5 °F 39.2 °F 93% 29.09 in 6.2 mi SSE 13.8 mph - N/A   Scattered Clouds
3:00 AM 41.0 °F 34.3 °F 39.2 °F 93% 29.06 in 6.2 mi SSE 11.5 mph - N/A   Scattered Clouds
3:30 AM 42.8 °F 35.8 °F 39.2 °F 87% 29.06 in 6.2 mi SSE 13.8 mph - N/A   Scattered Clouds
4:00 AM 42.8 °F 35.8 °F 39.2 °F 87% 29.06 in 6.2 mi SSE 13.8 mph - N/A Rain Light Rain Showers
4:30 AM 42.8 °F 35.8 °F 39.2 °F 87% 29.06 in 6.2 mi SSE 13.8 mph - N/A Rain Light Rain Showers
5:00 AM 41.0 °F 33.5 °F 39.2 °F 93% 29.06 in 6.2 mi SSE 13.8 mph - N/A Rain Light Rain Showers
5:30 AM 42.8 °F 36.6 °F 41.0 °F 93% 29.06 in 6.2 mi SSE 11.5 mph - N/A Rain Light Rain Showers
6:00 AM 42 °F - 40 °F 88% 29.06 in 12 mi SE 11.2 mph - - Rain Light Rain Showers
6:00 AM 41.0 °F 34.3 °F 39.2 °F 93% 29.06 in 6.2 mi SE 11.5 mph - N/A Rain Light Rain Showers
6:30 AM 41.0 °F 33.9 °F 39.2 °F 93% 29.06 in 6.2 mi SE 12.7 mph - N/A   Scattered Clouds
7:00 AM 41.0 °F 34.7 °F 39.2 °F 93% 29.06 in 6.2 mi SE 10.4 mph - N/A   Mostly Cloudy
7:30 AM 41.0 °F 33.9 °F 39.2 °F 93% 29.06 in 6.2 mi ESE 12.7 mph - N/A   Mostly Cloudy
8:00 AM 41.0 °F 34.7 °F 39.2 °F 93% 29.06 in 6.2 mi ESE 10.4 mph - N/A   Mostly Cloudy
8:30 AM 42.8 °F 37.0 °F 39.2 °F 87% 29.06 in 6.2 mi East 10.4 mph - N/A Rain Light Rain Showers
9:00 AM 42.8 °F 37.0 °F 41.0 °F 93% 29.09 in 6.2 mi East 10.4 mph - N/A   Mostly Cloudy
9:30 AM 42.8 °F 38.6 °F 39.2 °F 87% 29.09 in 6.2 mi East 6.9 mph - N/A   Mostly Cloudy
10:00 AM 42.8 °F 38.6 °F 39.2 °F 87% 29.12 in 6.2 mi NE 6.9 mph - N/A   Mostly Cloudy
10:30 AM 42.8 °F 38.6 °F 41.0 °F 93% 29.12 in 6.2 mi NNE 6.9 mph - N/A   Mostly Cloudy
11:00 AM 44.6 °F 39.7 °F 41.0 °F 87% 29.15 in 6.2 mi NNE 9.2 mph - N/A Rain Light Rain Showers
11:30 AM 44.6 °F 40.7 °F 41.0 °F 87% 29.15 in 6.2 mi North 6.9 mph - N/A   Mostly Cloudy
12:00 PM 46 °F - 43 °F 85% 29.19 in 19 mi NNW 11.2 mph - - Rain Light Rain Showers
12:00 PM 46.4 °F 41.5 °F 42.8 °F 87% 29.18 in 6.2 mi NNW 10.4 mph - N/A   Mostly Cloudy
12:30 PM 46.4 °F 41.1 °F 41.0 °F 81% 29.18 in 6.2 mi NNW 11.5 mph - N/A   Mostly Cloudy
1:00 PM 46.4 °F 40.4 °F 41.0 °F 81% 29.21 in 6.2 mi NNW 13.8 mph - N/A   Mostly Cloudy
1:30 PM 46.4 °F 40.7 °F 41.0 °F 81% 29.21 in 6.2 mi NNW 12.7 mph - N/A   Mostly Cloudy
2:00 PM 44.6 °F 39.2 °F 42.8 °F 93% 29.24 in 6.2 mi NNW 10.4 mph - N/A Rain Light Rain Showers
2:30 PM 44.6 °F 39.2 °F 42.8 °F 93% 29.24 in 6.2 mi NNW 10.4 mph - N/A   Mostly Cloudy
3:00 PM 46.4 °F 40.4 °F 42.8 °F 87% 29.24 in 6.2 mi NNW 13.8 mph - N/A   Mostly Cloudy
3:30 PM 46.4 °F 41.9 °F 42.8 °F 87% 29.27 in 6.2 mi NNW 9.2 mph - N/A   Mostly Cloudy
4:00 PM 46.4 °F 40.4 °F 41.0 °F 81% 29.27 in 6.2 mi NNW 13.8 mph - N/A   Scattered Clouds
4:30 PM 46.4 °F 41.5 °F 41.0 °F 81% 29.30 in 6.2 mi NNW 10.4 mph - N/A   Mostly Cloudy
5:00 PM 44.6 °F 39.7 °F 41.0 °F 87% 29.33 in 6.2 mi NNW 9.2 mph - N/A   Mostly Cloudy
5:30 PM 44.6 °F 38.8 °F 41.0 °F 87% 29.33 in 6.2 mi NNW 11.5 mph - N/A   Mostly Cloudy
6:00 PM 44 °F - 40 °F 82% 29.36 in 19 mi NNW 11.2 mph - -   Partly Cloudy
6:00 PM 44.6 °F 38.8 °F 41.0 °F 87% 29.36 in 6.2 mi NNW 11.5 mph - N/A   Mostly Cloudy
6:30 PM 44.6 °F 38.8 °F 41.0 °F 87% 29.36 in 6.2 mi NNW 11.5 mph - N/A   Mostly Cloudy
7:00 PM 44.6 °F 39.2 °F 41.0 °F 87% 29.39 in 6.2 mi NNW 10.4 mph - N/A   Mostly Cloudy
7:30 PM 44.6 °F 39.2 °F 41.0 °F 87% 29.39 in 6.2 mi NNW 10.4 mph - N/A   Mostly Cloudy
8:00 PM 42.8 °F 37.0 °F 41.0 °F 93% 29.42 in 6.2 mi NNW 10.4 mph - N/A   Mostly Cloudy
8:30 PM 44.6 °F 39.7 °F 41.0 °F 87% 29.44 in 6.2 mi North 9.2 mph - N/A   Mostly Cloudy
9:00 PM 44.6 °F 39.2 °F 41.0 °F 87% 29.44 in 6.2 mi North 10.4 mph - N/A   Mostly Cloudy
9:30 PM 42.8 °F 37.0 °F 41.0 °F 93% 29.47 in 6.2 mi NNW 10.4 mph - N/A Rain Light Rain Showers
10:00 PM 42.8 °F 37.0 °F 41.0 °F 93% 29.47 in 6.2 mi NNW 10.4 mph - N/A   Mostly Cloudy
10:30 PM 42.8 °F 37.0 °F 41.0 °F 93% 29.50 in 6.2 mi NNW 10.4 mph - N/A   Mostly Cloudy
11:00 PM 42.8 °F 38.0 °F 41.0 °F 93% 29.50 in 6.2 mi North 8.1 mph - N/A   Mostly Cloudy
11:30 PM 41.0 °F 35.2 °F 39.2 °F 93% 29.53 in 6.2 mi North 9.2 mph - N/A   Scattered Clouds